Flight Briefing for CPX317

Departure Arrival
Portland International Airport (KPDX)
Click to view FAA NOTAMS
Phoenix Sky Harbor International Airport (KPHX)
Click to view FAA NOTAMS
Departure Time Arrival Time
N/A N/A
Aircraft Distance
B767-300BDSF 878nm
Departure METAR Arrival METAR
KPDX 200853Z 21005KT 10SM SCT250 11/01 A2992 RMK AO2 SLP130 T01060011 53002 $ KPHX 200851Z 09005KT 10SM FEW180 18/06 A2991 RMK AO2 SLP114 T01830056 50000
Suggested Route
BTG J159 DSD REO J523 ELY WINEN Q35 CORKR TENTS BRUSR1


View recent IFR Routes data
Notes



Charts and Procedures

Charts for KPDX
No chart available
Charts for KPHX
No chart available

Windy.com Weather Map